Wind_Speed
34 31 29 29 29 27 26 25 23 21 20 19 17 15 13 11 9 7 6 7 7 7 8 9 9 9 9 9 11 12 13 14 14 15 16 16 18 19 20 21 22 22 23 24
35 32 32 30 29 28 27 26 26 23 21 20 19 16 13 12 11 10 9 9 9 8 9 10 10 10 11 11 12 13 14 14 15 16 17 18 19 21 22 23 24 25 26 27
37 34 33 32 30 29 28 28 27 25 22 21 19 18 15 13 12 11 10 10 11 11 12 12 12 13 14 14 14 15 16 17 17 19 20 20 22 24 24 25 26 26 27 28
37 36 35 31 31 31 30 29 28 26 23 22 20 19 17 15 13 13 12 12 12 12 14 15 15 15 16 17 17 18 19 19 20 21 23 24 25 26 27 27 28 29 29 29
37 36 35 32 31 31 30 28 26 25 24 22 20 19 17 15 14 14 14 14 14 15 15 16 17 18 18 19 19 20 21 21 22 23 25 26 27 28 29 29 29 29 30 30
34 34 34 31 30 30 29 29 27 26 24 22 22 20 18 17 16 15 15 16 16 16 16 16 18 19 20 20 21 21 22 24 25 26 28 29 29 29 28 28 30 31 32 33
31 32 32 29 28 29 30 27 26 26 25 25 23 21 20 18 17 17 17 17 17 18 18 19 20 21 22 22 23 23 24 26 28 29 29 30 30 30 29 30 31 33 34 34
27 29 30 30 28 27 27 27 26 26 25 23 23 21 21 20 19 18 19 19 20 21 21 22 22 23 24 24 25 26 27 28 29 30 30 30 32 32 33 32 33 33 35 36
24 26 26 25 25 25 25 26 25 26 25 25 24 23 22 21 20 19 19 20 21 22 22 22 23 25 26 27 28 29 29 30 31 32 33 33 34 34 34 34 33 34 34 36
21 23 23 23 24 24 24 26 26 26 25 23 22 22 21 21 20 20 19 20 22 23 24 24 25 27 28 29 30 31 32 32 32 33 33 34 35 35 36 36 36 37 38 39
17 18 18 19 20 22 23 24 24 24 23 21 21 21 22 22 22 21 21 21 22 23 24 26 27 28 28 29 30 32 33 33 34 35 35 35 35 36 37 38 38 39 40 41
13 15 17 18 18 19 20 19 17 17 19 19 19 19 20 20 21 21 22 23 23 24 24 25 26 28 29 30 31 32 33 34 34 35 36 37 38 38 38 39 40 40 40 41
11 12 14 14 13 15 18 17 17 17 17 19 19 19 20 21 21 21 22 22 22 23 24 26 27 28 29 30 31 33 34 35 36 36 37 38 38 39 40 40 40 41 41 41
10 10 11 12 13 13 15 16 15 16 16 17 17 18 19 20 20 21 22 22 23 24 25 27 28 29 31 32 33 34 35 36 37 37 38 39 39 40 41 41 41 41 42 43
8 9 10 10 11 11 12 13 13 14 14 15 16 17 18 19 20 20 21 23 24 25 26 28 29 30 32 33 34 35 35 36 37 37 38 39 40 41 42 42 42 43 44 46
8 9 9 9 9 10 10 11 11 12 13 14 15 17 18 20 21 22 22 24 25 26 27 29 30 31 32 33 34 35 36 37 37 37 38 39 40 41 42 43 44 45 47 48
9 9 9 9 9 9 10 10 11 12 13 15 16 17 19 21 22 23 24 25 27 28 29 30 31 31 32 34 35 36 36 37 38 39 40 41 42 43 44 45 46 46 47 48
10 9 9 9 9 10 10 10 11 13 14 16 17 19 21 22 24 25 26 27 28 29 30 31 32 33 34 36 37 37 38 40 41 42 43 44 44 45 45 46 47 48 48 49
10 10 10 10 11 12 13 14 14 15 16 17 19 21 22 24 25 26 28 29 30 31 32 34 35 36 37 38 39 40 41 42 43 44 45 45 46 46 47 48 48 49 49 49
10 10 11 11 12 13 14 16 16 18 19 20 21 22 24 25 26 28 29 30 32 33 34 35 36 38 39 40 41 42 43 44 44 45 46 46 46 47 47 47 47 46 46 46
11 12 12 13 14 15 16 17 19 20 21 22 23 25 26 27 28 29 31 32 34 35 36 38 39 40 41 42 43 44 44 45 45 45 45 45 45 45 45 44 43 43 42 41
13 14 14 15 16 17 18 19 21 22 23 25 26 27 28 29 30 32 34 35 36 38 39 40 41 42 43 44 44 44 44 44 44 44 44 43 42 42 41 40 40 39 38 37
15 16 17 18 19 20 21 22 23 24 25 27 28 29 30 32 33 35 36 37 39 40 41 41 42 42 42 43 43 43 43 43 43 42 41 40 39 38 37 36 36 35 34 33
17 18 19 20 20 22 23 24 25 26 28 29 31 32 33 35 36 37 38 39 39 40 40 41 41 42 42 42 42 42 41 41 40 38 37 36 36 35 34 33 32 31 30 29
18 19 21 22 23 24 25 27 28 29 30 31 32 34 35 36 37 38 39 39 40 40 40 41 41 40 40 39 39 39 38 37 36 35 34 33 32 32 31 30 28 27 26 26
20 21 22 23 25 26 27 29 30 31 32 33 34 35 36 37 38 39 39 39 39 39 39 39 38 38 37 37 37 36 35 34 33 32 31 30 29 28 27 26 24 23 22 22
22 23 24 25 26 27 28 29 30 31 32 33 35 36 36 37 37 37 37 37 36 36 36 36 35 34 34 33 32 31 30 29 28 27 25 25 24 23 22 21 20 19 18 17
Wind_Direction
245 242 242 245 248 252 253 257 260 263 269 272 276 277 278 278 283 273 266 263 256 252 253 250 247 247 245 241 239 239 239 242 244 243 244 247 250 253 255 257 259 262 266 268
244 243 242 243 247 251 255 258 259 261 264 266 266 268 269 271 271 270 272 270 260 257 255 255 253 251 250 249 247 246 248 251 254 255 255 256 257 260 260 262 264 266 270 271
243 242 242 241 244 248 251 253 256 258 261 262 259 264 262 265 267 269 271 272 267 268 262 257 253 253 253 255 253 254 255 256 258 259 260 262 262 265 266 268 270 273 275 274
241 240 241 240 241 245 248 250 253 254 256 256 256 262 259 259 262 265 264 267 269 264 262 260 255 254 256 257 259 261 262 261 262 263 262 264 266 268 267 268 271 272 274 276
240 239 241 238 239 243 248 249 250 252 253 252 253 260 264 262 262 265 266 265 268 264 263 259 254 255 259 262 263 265 267 266 266 266 267 268 270 271 269 270 272 275 276 275
238 237 237 236 239 244 246 246 248 249 252 253 256 258 258 258 258 262 266 268 266 262 263 263 259 260 264 265 267 268 269 269 270 271 271 271 275 274 275 275 277 276 277 277
236 238 237 236 238 243 244 245 245 248 252 254 250 251 253 255 255 259 264 266 265 263 263 265 265 267 268 268 269 271 272 274 276 278 279 278 279 278 278 279 277 275 275 277
233 234 236 237 240 242 242 243 245 249 251 254 252 251 252 254 252 256 261 264 264 263 264 266 269 270 270 270 270 271 273 275 278 280 280 282 282 281 280 279 279 278 277 277
235 237 238 235 237 240 238 240 245 248 247 250 252 251 252 256 255 255 260 262 264 265 266 267 270 271 273 274 274 275 277 279 283 284 284 283 285 284 283 281 281 282 282 281
237 239 240 237 237 238 240 241 245 243 245 247 248 248 251 256 255 257 258 261 264 265 268 269 270 272 275 277 279 280 281 282 284 286 286 287 287 285 282 282 282 282 280 280
242 240 239 241 241 241 241 241 240 239 239 240 245 249 253 255 254 254 256 260 263 266 268 271 274 275 276 278 280 281 282 283 285 286 286 286 286 286 284 283 283 281 278 278
246 244 242 245 243 238 238 239 237 234 232 234 240 248 249 254 255 257 260 263 266 269 271 273 275 277 277 279 281 282 283 283 284 285 286 286 286 286 284 283 283 281 280 279
248 247 241 241 239 236 240 244 246 245 240 241 244 246 251 256 260 262 263 265 269 272 274 276 278 279 280 282 283 284 284 284 285 285 286 286 287 286 284 283 282 281 281 281
244 246 246 243 241 245 243 242 243 244 244 244 246 251 254 257 261 266 268 270 272 274 276 278 280 281 282 283 283 284 285 285 286 286 286 286 285 285 284 284 283 283 283 283
249 245 243 244 243 238 236 240 244 248 252 253 253 255 259 265 268 270 273 274 276 278 279 280 281 283 284 285 286 287 288 288 288 288 288 288 287 287 286 286 286 285 285 284
243 243 239 237 236 243 254 257 257 256 255 259 262 266 269 271 274 277 279 279 279 281 282 283 284 284 285 287 288 289 289 289 289 289 289 289 289 289 288 288 287 286 286 286
239 243 246 249 253 258 262 261 260 261 264 268 271 274 277 278 279 280 281 281 281 283 284 284 285 286 288 290 290 290 290 289 290 290 290 290 290 290 289 289 288 288 288 287
244 249 255 258 259 260 262 266 269 273 277 278 280 281 283 284 284 283 283 283 284 285 286 287 288 289 290 291 291 291 291 291 291 291 291 291 291 291 290 290 289 289 289 289
244 252 256 258 261 264 269 273 275 278 279 281 282 283 284 286 286 287 287 287 288 289 289 290 290 290 291 291 292 292 292 292 292 292 292 291 291 291 290 290 289 289 289 289
250 257 262 264 266 270 273 276 278 280 281 283 285 286 287 288 289 290 290 291 292 292 293 292 292 293 293 294 294 294 293 293 293 293 293 292 291 291 291 290 290 290 290 290
258 265 268 270 273 275 279 281 283 285 285 286 287 289 291 292 293 294 294 295 296 296 296 295 295 295 295 295 295 294 294 294 294 293 293 292 291 291 291 291 292 292 292 291
267 270 273 276 277 279 282 284 285 287 289 290 291 292 293 294 295 296 297 298 298 298 298 297 297 296 296 295 295 295 295 294 294 294 293 293 293 292 292 293 294 294 293 292
268 272 275 278 280 283 286 288 289 290 291 292 293 294 295 296 297 299 299 299 299 299 299 298 298 297 296 295 295 295 295 295 295 294 294 294 293 293 293 294 294 294 294 293
274 276 278 280 282 284 286 289 290 291 292 293 295 296 297 298 299 299 300 300 300 300 299 299 298 297 297 297 297 297 296 296 296 295 294 294 294 294 293 293 294 294 294 293
274 278 280 283 286 288 290 291 292 293 294 295 296 298 299 299 299 300 300 299 300 300 299 299 299 299 299 298 298 298 297 296 296 296 295 295 295 294 293 293 295 295 295 296
278 281 283 285 288 290 291 293 294 296 296 297 298 299 300 300 300 301 301 301 301 301 301 301 300 300 300 300 299 299 299 298 297 297 296 296 296 295 295 295 296 296 297 298
280 283 285 287 289 290 292 293 295 296 297 298 298 300 300 301 302 302 302 303 302 302 302 302 302 302 302 303 302 302 303 302 300 298 298 299 300 300 299 299 300 301 302 303
Height
5807 5811 5813 5815 5817 5819 5820 5821 5823 5824 5824 5825 5826 5826 5826 5826 5826 5827 5827 5829 5829 5830 5830 5830 5831 5832 5832 5833 5834 5835 5835 5836 5836 5837 5838 5839 5840 5840 5841 5841 5841 5840 5840 5839
5800 5804 5806 5808 5811 5813 5814 5815 5816 5818 5820 5820 5821 5821 5822 5822 5823 5823 5824 5825 5826 5826 5827 5827 5828 5829 5829 5830 5830 5831 5832 5833 5833 5833 5834 5834 5835 5834 5834 5834 5833 5832 5832 5832
5793 5796 5798 5802 5805 5806 5808 5809 5810 5813 5815 5815 5816 5817 5818 5819 5819 5820 5820 5821 5822 5822 5823 5824 5824 5825 5825 5826 5826 5827 5828 5828 5828 5829 5829 5829 5828 5828 5827 5826 5826 5825 5824 5824
5784 5788 5790 5797 5798 5800 5802 5803 5805 5807 5809 5809 5811 5811 5812 5813 5814 5815 5816 5817 5817 5817 5818 5819 5819 5820 5820 5821 5821 5822 5822 5822 5822 5822 5822 5821 5821 5820 5819 5818 5818 5817 5816 5815
5776 5779 5783 5788 5791 5793 5795 5797 5799 5800 5802 5804 5805 5806 5807 5807 5808 5810 5810 5811 5811 5812 5812 5812 5813 5814 5815 5815 5816 5816 5816 5815 5815 5814 5813 5812 5812 5811 5809 5809 5809 5808 5807 5806
5767 5771 5775 5781 5784 5786 5789 5790 5793 5794 5796 5798 5800 5801 5802 5803 5804 5804 5805 5805 5806 5806 5806 5807 5808 5808 5809 5808 5808 5808 5808 5808 5807 5806 5804 5803 5802 5801 5800 5800 5799 5798 5797 5796
5760 5763 5768 5772 5776 5779 5782 5785 5787 5788 5790 5791 5792 5795 5796 5797 5798 5798 5799 5800 5800 5801 5801 5801 5802 5802 5802 5802 5801 5801 5801 5800 5799 5798 5796 5795 5793 5792 5791 5790 5789 5788 5787 5785
5755 5758 5763 5766 5769 5772 5775 5777 5780 5782 5783 5785 5786 5787 5789 5791 5792 5792 5793 5794 5794 5795 5795 5795 5795 5795 5794 5794 5794 5794 5793 5792 5790 5789 5787 5785 5784 5782 5780 5779 5779 5778 5776 5775
5751 5754 5756 5759 5762 5765 5767 5770 5772 5774 5776 5778 5780 5781 5783 5784 5785 5786 5787 5787 5788 5788 5788 5788 5788 5788 5787 5786 5786 5785 5784 5783 5782 5780 5778 5776 5774 5772 5770 5769 5768 5767 5766 5764
5745 5747 5750 5753 5756 5759 5761 5763 5766 5768 5770 5772 5772 5775 5777 5778 5779 5780 5781 5781 5781 5781 5781 5781 5781 5780 5779 5778 5777 5776 5774 5773 5773 5771 5769 5767 5765 5762 5760 5759 5758 5756 5755 5753
5740 5742 5745 5748 5750 5752 5754 5756 5758 5760 5762 5764 5766 5769 5770 5771 5772 5772 5773 5774 5774 5774 5774 5773 5773 5772 5771 5770 5769 5768 5766 5765 5763 5761 5760 5758 5756 5754 5752 5750 5748 5746 5744 5741
5736 5739 5741 5742 5744 5746 5748 5749 5751 5753 5755 5756 5759 5762 5763 5764 5765 5766 5767 5767 5767 5767 5766 5766 5765 5764 5762 5762 5760 5759 5757 5755 5753 5752 5749 5748 5746 5743 5741 5739 5736 5733 5731 5729
5733 5734 5736 5737 5739 5740 5742 5744 5746 5748 5750 5751 5753 5755 5756 5758 5759 5759 5759 5759 5759 5759 5759 5758 5757 5755 5754 5752 5751 5749 5747 5745 5743 5741 5739 5737 5734 5732 5729 5726 5723 5720 5718 5715
5728 5730 5732 5733 5735 5736 5738 5739 5741 5743 5745 5746 5748 5749 5750 5751 5752 5752 5752 5752 5751 5751 5750 5749 5748 5746 5745 5743 5741 5739 5737 5735 5732 5730 5727 5725 5722 5719 5716 5713 5711 5707 5704 5701
5725 5727 5729 5730 5731 5732 5734 5735 5736 5738 5740 5741 5743 5744 5744 5745 5745 5745 5745 5744 5744 5743 5742 5741 5739 5737 5735 5733 5731 5729 5726 5724 5721 5718 5715 5712 5710 5706 5703 5700 5697 5694 5690 5687
5723 5724 5725 5727 5728 5729 5730 5732 5733 5734 5735 5736 5737 5738 5738 5738 5738 5738 5737 5736 5736 5735 5733 5731 5730 5728 5725 5723 5721 5718 5716 5713 5710 5707 5704 5700 5697 5693 5690 5687 5683 5679 5676 5672
5720 5721 5722 5724 5725 5726 5727 5728 5729 5730 5731 5731 5732 5732 5732 5732 5731 5730 5730 5729 5728 5726 5724 5722 5720 5717 5715 5713 5710 5707 5704 5701 5698 5695 5691 5688 5684 5680 5676 5672 5668 5664 5660 5656
5717 5718 5719 5720 5722 5722 5723 5724 5725 5725 5725 5726 5726 5726 5725 5725 5724 5723 5722 5720 5718 5716 5714 5712 5710 5707 5705 5702 5699 5696 5692 5689 5685 5681 5678 5674 5670 5665 5661 5657 5653 5649 5645 5640
5713 5714 5716 5717 5718 5718 5719 5719 5720 5720 5720 5720 5720 5719 5718 5717 5716 5715 5713 5711 5709 5707 5705 5702 5699 5696 5693 5690 5686 5683 5679 5675 5671 5667 5663 5659 5655 5651 5646 5642 5638 5634 5629 5624
5710 5711 5712 5713 5713 5714 5714 5715 5715 5715 5714 5714 5713 5712 5711 5709 5708 5706 5704 5702 5699 5697 5694 5690 5687 5684 5681 5677 5673 5669 5665 5661 5657 5653 5648 5644 5640 5635 5631 5626 5622 5618 5613 5609
5706 5707 5707 5708 5708 5709 5709 5709 5708 5708 5707 5706 5705 5704 5702 5701 5699 5696 5694 5691 5688 5685 5682 5678 5675 5671 5667 5663 5659 5655 5651 5647 5642 5638 5633 5629 5624 5620 5616 5612 5607 5603 5599 5595
5701 5702 5702 5703 5703 5703 5702 5702 5701 5700 5699 5698 5697 5695 5693 5691 5689 5687 5683 5680 5677 5673 5669 5665 5662 5658 5653 5649 5645 5641 5636 5632 5628 5623 5619 5614 5610 5606 5602 5598 5594 5590 5587 5583
5696 5697 5697 5697 5697 5696 5695 5695 5694 5692 5691 5690 5688 5686 5684 5681 5679 5676 5673 5669 5665 5661 5656 5652 5648 5644 5640 5635 5631 5626 5622 5618 5613 5609 5605 5601 5597 5593 5589 5586 5582 5579 5575 5572
5691 5691 5690 5690 5690 5689 5688 5687 5686 5684 5683 5681 5679 5676 5674 5671 5667 5664 5660 5656 5652 5648 5644 5639 5635 5630 5626 5621 5617 5612 5608 5604 5600 5595 5592 5588 5584 5581 5578 5575 5571 5568 5565 5562
5685 5684 5684 5683 5682 5681 5680 5679 5677 5675 5673 5671 5668 5666 5663 5659 5656 5652 5648 5644 5640 5635 5631 5626 5622 5617 5613 5608 5604 5599 5595 5591 5587 5583 5580 5577 5573 5570 5567 5565 5562 5559 5556 5553
5678 5677 5677 5676 5675 5673 5672 5670 5668 5665 5663 5660 5658 5655 5651 5648 5644 5640 5636 5631 5627 5623 5618 5614 5609 5605 5600 5596 5592 5587 5583 5579 5576 5572 5569 5566 5563 5561 5558 5555 5553 5551 5548 5546
5671 5670 5669 5668 5666 5664 5663 5661 5658 5656 5653 5650 5647 5644 5640 5637 5633 5628 5624 5620 5616 5611 5607 5602 5598 5594 5589 5585 5581 5577 5573 5569 5566 5563 5560 5557 5555 5552 5550 5548 5546 5544 5542 5539